Flag for U.S.A. Weather past 2 weeks in New Orleans, Louisiana, U.S.A.

Now
59 °F

Sunny.


Feels Like: 58 °F
Forecast: 48 / 60 °F
Wind: 7 mph from North

Location: Lakefront Airport

Current Time: Jan 30, 2015 at 2:48:03 PM

Latest Report: Jan 30, 2015 at 1:53 PM


Visibility: 10 mi

Pressure: 30.32 "Hg

Humidity: 44%

Dew point: 37 °F

Location of New OrleansLocation

Historic Weather in New Orleans — Graph

°F

New Orleans temperature yesterday

Maximum temperature yesterday: 74 °F (at 1:53 PM)
Minimum temperature yesterday: 50 °F (at 3:53 AM)
Average temperature yesterday: 62 °F

Past Weeks' High & Low Weather Summary

 TemperatureHumidityPressure
High74 °F (Jan 29, 1:53 PM)90% (Jan 21, 3:53 AM)30.39 "Hg (Jan 21, 3:53 AM)
Low42 °F (Jan 17, 3:53 AM)35% (Jan 25, 2:53 PM)29.84 "Hg (Jan 25, 4:53 PM)
Average54 °F68%30.12 "Hg
* Reported Jan 15 1:53 PM — Jan 30 1:53 PM, New Orleans, Weather by CustomWeather, © 2014

Note: Actual official high and low records may vary slightly from our data, if they occured in-between our weather recording intervals... More about our weather records

Advertising

New Orleans weather history for previous 24 hours

 ConditionsComfort  
Time TempWeatherWind HumidityBarometerVisibility
1:53 PM
Jan 30
59 °FSunny.7 mph44%30.32 "Hg10 mi
12:53 PM58 °FSunny.8 mph46%30.33 "Hg10 mi
11:53 AM56 °FSunny.10 mph49%30.36 "Hg10 mi
10:53 AM54 °FSunny.14 mph55%30.39 "Hg10 mi
9:53 AM52 °FSunny.17 mph61%30.39 "Hg10 mi
8:53 AM51 °FSunny.20 mph66%30.38 "Hg10 mi
7:53 AM50 °FSunny.17 mph68%30.36 "Hg10 mi
6:53 AM50 °FSunny.18 mph68%30.33 "Hg10 mi
5:53 AM52 °FClear.18 mph69%30.31 "Hg10 mi
4:53 AM54 °FClear.20 mph67%30.28 "Hg10 mi
3:53 AM57 °FClear.23 mph62%30.27 "Hg10 mi
2:53 AM58 °FClear.17 mph70%30.26 "Hg10 mi
1:53 AM59 °FPassing clouds.15 mph78%30.24 "Hg10 mi
12:53 AM59 °FClear.10 mph84%30.22 "Hg10 mi
11:53 PM
Jan 29
60 °FClear.10 mph83%30.21 "Hg10 mi
10:53 PM61 °FClear.12 mph81%30.21 "Hg10 mi
9:53 PM61 °FClear.12 mph81%30.21 "Hg10 mi
8:53 PM64 °FClear.13 mph73%30.20 "Hg10 mi
7:53 PM66 °FClear.12 mph68%30.19 "Hg10 mi
6:53 PM68 °FClear.14 mph63%30.18 "Hg10 mi
5:53 PM69 °FClear.3 mph61%30.16 "Hg10 mi
4:53 PM71 °FSunny.No wind59%30.15 "Hg10 mi
3:53 PM71 °FSunny.5 mph59%30.16 "Hg10 mi
2:53 PM71 °FPassing clouds.7 mph59%30.17 "Hg10 mi
Weather by CustomWeather, © 2014

See weather overviewHow to use our weather pages